When you browse on this site, cookies collect data to enhance your experience and personalize the content and advertising you see.
Visit our Privacy Policy to learn more. By continuing to use the site, you agree to this use of cookies and data.
  • In Hungary
  • List of Countries
  • For 7 days
  • Water Temperature
  • Satellite Maps
  • Weather Map
  • News
  • Weather Widgets
  • user-avatar
    Login

    Hourly Weather Stawiszcze

    Today, 25 May, Saturday

    Time Temperature Precipitation Wind Pressure Humidity
    00:00 +14°C° 0 mm 1 mps 742 mmHg 91%
    01:00 +13°C° 0 mm 1 mps 742 mmHg 92%
    02:00 +13°C° 0 mm 1 mps 742 mmHg 93%
    03:00 +13°C° 0 mm 1 mps 742 mmHg 93%
    04:00 +13°C° 0 mm 1 mps 742 mmHg 92%
    05:00 +12°C° 0 mm 0 mps 742 mmHg 92%
    06:00 +14°C° 0 mm 1 mps 742 mmHg 88%
    07:00 +16°C° 0 mm 1 mps 742 mmHg 83%
    08:00 +17°C° 0 mm 2 mps 742 mmHg 78%
    09:00 +18°C° 0.2 mm 3 mps 742 mmHg 72%
    10:00 +20°C° 0.2 mm 3 mps 742 mmHg 66%
    11:00 +21°C° 0.2 mm 4 mps 742 mmHg 60%
    12:00 +21°C° 0 mm 4 mps 742 mmHg 58%
    13:00 +22°C° 0 mm 4 mps 742 mmHg 55%
    14:00 +22°C° 0 mm 4 mps 742 mmHg 52%
    15:00 +22°C° 0 mm 4 mps 742 mmHg 53%
    16:00 +22°C° 0 mm 4 mps 741 mmHg 55%
    17:00 +22°C° 0 mm 4 mps 741 mmHg 57%
    18:00 +20°C° 0.2 mm 3 mps 741 mmHg 65%
    19:00 +18°C° 0.2 mm 3 mps 741 mmHg 74%
    20:00 +17°C° 0.2 mm 2 mps 741 mmHg 83%
    21:00 +15°C° 0 mm 2 mps 742 mmHg 87%
    22:00 +14°C° 0 mm 2 mps 742 mmHg 91%
    23:00 +13°C° 0 mm 2 mps 743 mmHg 95%

    Tomorrow, 26 May, Sunday

    Time Temperature Precipitation Wind Pressure Humidity
    00:00 +12°C° 0 mm 2 mps 743 mmHg 94%
    01:00 +12°C° 0 mm 2 mps 743 mmHg 93%
    02:00 +11°C° 0 mm 1 mps 743 mmHg 92%
    03:00 +11°C° 0 mm 1 mps 743 mmHg 91%
    04:00 +11°C° 0 mm 1 mps 743 mmHg 91%
    05:00 +11°C° 0 mm 1 mps 743 mmHg 90%
    06:00 +12°C° 0 mm 2 mps 743 mmHg 87%
    07:00 +12°C° 0 mm 3 mps 743 mmHg 83%
    08:00 +13°C° 0 mm 4 mps 743 mmHg 80%
    09:00 +14°C° 0 mm 4 mps 743 mmHg 75%
    10:00 +15°C° 0 mm 5 mps 743 mmHg 69%
    11:00 +16°C° 0 mm 5 mps 743 mmHg 64%
    12:00 +17°C° 0 mm 5 mps 743 mmHg 62%
    13:00 +19°C° 0 mm 5 mps 743 mmHg 60%
    14:00 +19°C° 0 mm 5 mps 743 mmHg 59%
    15:00 +19°C° 0 mm 5 mps 743 mmHg 59%
    16:00 +19°C° 0 mm 5 mps 742 mmHg 60%
    17:00 +19°C° 0 mm 5 mps 742 mmHg 61%
    18:00 +18°C° 0 mm 4 mps 742 mmHg 66%
    19:00 +17°C° 0 mm 3 mps 742 mmHg 72%
    20:00 +16°C° 0 mm 2 mps 742 mmHg 78%
    21:00 +15°C° 0 mm 2 mps 742 mmHg 80%
    22:00 +14°C° 0 mm 2 mps 742 mmHg 82%
    23:00 +13°C° 0 mm 2 mps 742 mmHg 85%

    Day after tomorrow, 27 May, Monday

    Time Temperature Precipitation Wind Pressure Humidity
    00:00 +12°C° 0 mm 3 mps 742 mmHg 84%
    01:00 +12°C° 0 mm 3 mps 742 mmHg 83%
    02:00 +12°C° 0 mm 3 mps 742 mmHg 82%
    03:00 +12°C° 0 mm 3 mps 742 mmHg 83%
    04:00 +12°C° 0 mm 3 mps 742 mmHg 85%
    05:00 +12°C° 0 mm 3 mps 742 mmHg 86%
    06:00 +14°C° 0 mm 4 mps 742 mmHg 82%
    07:00 +15°C° 0 mm 4 mps 742 mmHg 78%
    08:00 +18°C° 0 mm 4 mps 742 mmHg 74%
    09:00 +19°C° 0 mm 5 mps 742 mmHg 69%
    10:00 +21°C° 0 mm 5 mps 742 mmHg 65%
    11:00 +22°C° 0 mm 6 mps 742 mmHg 60%
    12:00 +23°C° 0.3 mm 6 mps 742 mmHg 60%
    13:00 +23°C° 0.3 mm 6 mps 741 mmHg 60%
    14:00 +24°C° 0.3 mm 6 mps 741 mmHg 59%
    15:00 +24°C° 0.1 mm 6 mps 741 mmHg 59%
    16:00 +25°C° 0.1 mm 5 mps 741 mmHg 59%
    17:00 +25°C° 0.1 mm 5 mps 741 mmHg 59%
    18:00 +23°C° 0.2 mm 4 mps 741 mmHg 67%
    19:00 +21°C° 0.2 mm 4 mps 741 mmHg 74%
    20:00 +19°C° 0.2 mm 4 mps 741 mmHg 82%
    21:00 +19°C° 0 mm 3 mps 741 mmHg 85%
    22:00 +18°C° 0 mm 3 mps 741 mmHg 87%
    23:00 +17°C° 0 mm 3 mps 742 mmHg 90%

    28 May, Tuesday

    Time Temperature Precipitation Wind Pressure Humidity
    00:00 +17°C° 0 mm 3 mps 742 mmHg 90%
    01:00 +17°C° 0 mm 2 mps 741 mmHg 91%
    02:00 +17°C° 0 mm 2 mps 741 mmHg 91%
    03:00 +16°C° 0 mm 2 mps 741 mmHg 92%
    04:00 +16°C° 0 mm 2 mps 741 mmHg 92%
    05:00 +16°C° 0 mm 2 mps 741 mmHg 93%
    06:00 +16°C° 1 mm 2 mps 741 mmHg 93%
    07:00 +17°C° 1 mm 2 mps 740 mmHg 94%
    08:00 +17°C° 1 mm 2 mps 740 mmHg 94%
    09:00 +19°C° 1.3 mm 3 mps 740 mmHg 89%
    10:00 +20°C° 1.3 mm 4 mps 740 mmHg 85%
    11:00 +22°C° 1.3 mm 5 mps 739 mmHg 81%
    12:00 +22°C° 0.9 mm 5 mps 739 mmHg 80%
    13:00 +23°C° 0.9 mm 5 mps 739 mmHg 78%
    14:00 +23°C° 0.9 mm 5 mps 738 mmHg 77%
    15:00 +23°C° 0.9 mm 5 mps 738 mmHg 79%
    16:00 +23°C° 0.9 mm 4 mps 738 mmHg 80%
    17:00 +24°C° 0.9 mm 3 mps 738 mmHg 81%
    18:00 +22°C° 0.8 mm 3 mps 737 mmHg 84%
    19:00 +21°C° 0.8 mm 3 mps 737 mmHg 87%
    20:00 +20°C° 0.8 mm 3 mps 737 mmHg 90%
    21:00 +19°C° 0.7 mm 3 mps 737 mmHg 92%
    22:00 +18°C° 0.7 mm 3 mps 737 mmHg 94%
    23:00 +17°C° 0.7 mm 2 mps 737 mmHg 95%

    29 May, Wednesday

    Time Temperature Precipitation Wind Pressure Humidity
    00:00 +17°C° 0 mm 2 mps 737 mmHg 95%
    01:00 +17°C° 0 mm 2 mps 737 mmHg 95%
    02:00 +17°C° 0 mm 2 mps 737 mmHg 95%
    03:00 +17°C° 0 mm 2 mps 736 mmHg 96%
    04:00 +17°C° 0 mm 2 mps 736 mmHg 96%
    05:00 +16°C° 0 mm 2 mps 736 mmHg 96%
    06:00 +18°C° 0 mm 2 mps 736 mmHg 93%
    07:00 +19°C° 0 mm 2 mps 737 mmHg 90%
    08:00 +20°C° 0 mm 2 mps 737 mmHg 87%
    09:00 +21°C° 1.5 mm 2 mps 737 mmHg 84%
    10:00 +21°C° 1.5 mm 2 mps 737 mmHg 81%
    11:00 +23°C° 1.5 mm 2 mps 737 mmHg 78%
    12:00 +22°C° 2.3 mm 3 mps 738 mmHg 78%
    13:00 +22°C° 2.3 mm 3 mps 738 mmHg 78%
    14:00 +22°C° 2.3 mm 3 mps 739 mmHg 78%
    15:00 +21°C° 0.9 mm 5 mps 739 mmHg 82%
    16:00 +19°C° 0.9 mm 6 mps 740 mmHg 86%
    17:00 +16°C° 0.9 mm 7 mps 740 mmHg 90%
    18:00 +14°C° 0 mm 6 mps 741 mmHg 90%
    19:00 +13°C° 0 mm 6 mps 741 mmHg 90%
    20:00 +10°C° 0 mm 5 mps 742 mmHg 90%
    21:00 +10°C° 0 mm 5 mps 743 mmHg 90%
    22:00 +9°C° 0 mm 5 mps 744 mmHg 90%
    23:00 +9°C° 0 mm 5 mps 744 mmHg 89%

    30 May, Thursday

    Time Temperature Precipitation Wind Pressure Humidity
    00:00 +9°C° 0 mm 5 mps 745 mmHg 89%
    01:00 +8°C° 0 mm 5 mps 745 mmHg 88%
    02:00 +8°C° 0 mm 5 mps 746 mmHg 87%
    03:00 +8°C° 0 mm 5 mps 746 mmHg 86%
    04:00 +8°C° 0 mm 4 mps 746 mmHg 85%
    05:00 +7°C° 0 mm 4 mps 747 mmHg 84%
    06:00 +7°C° 0.4 mm 4 mps 747 mmHg 86%
    07:00 +7°C° 0.4 mm 4 mps 748 mmHg 88%
    08:00 +7°C° 0.4 mm 4 mps 748 mmHg 89%
    09:00 +9°C° 0 mm 3 mps 749 mmHg 86%
    10:00 +10°C° 0 mm 3 mps 749 mmHg 82%
    11:00 +10°C° 0 mm 3 mps 749 mmHg 79%
    12:00 +11°C° 0 mm 3 mps 750 mmHg 72%
    13:00 +13°C° 0 mm 3 mps 750 mmHg 65%
    14:00 +14°C° 0 mm 3 mps 750 mmHg 58%
    15:00 +14°C° 0 mm 3 mps 750 mmHg 58%
    16:00 +16°C° 0 mm 3 mps 750 mmHg 58%
    17:00 +16°C° 0 mm 2 mps 750 mmHg 58%
    18:00 +16°C° 0 mm 2 mps 749 mmHg 63%
    19:00 +15°C° 0 mm 2 mps 749 mmHg 68%
    20:00 +14°C° 0 mm 2 mps 749 mmHg 73%
    21:00 +13°C° 0 mm 2 mps 749 mmHg 73%
    22:00 +13°C° 0 mm 1 mps 749 mmHg 74%
    23:00 +12°C° 0 mm 1 mps 749 mmHg 75%
    Show more